Weather History for Joplin, MO

Change the Weather History Date:

Monday, August 4, 2014

  Actual Average Record
Temperature  
Mean Temperature 79 °F 81 °F  
Max Temperature 91 °F 92 °F 107 °F (2012)
Min Temperature 67 °F 70 °F 50 °F (1974)
Degree Days  
Heating Degree Days 0 0  
Month to date heating degree days 0 0  
Since 1 June heating degree days 3 5  
Since 1 July heating degree days 1 0  
Cooling Degree Days 14 16  
Month to date cooling degree days 44 64  
Year to date cooling degree days 890 1035  
Since 1 June cooling degree days 677 855  
Growing Degree Days 30 (Base 50)    
Moisture  
Dew Point 64 °F    
Average Humidity 63    
Maximum Humidity 87    
Minimum Humidity 38    
Precipitation  
Precipitation 0.00 in 0.10 in 1.26 in (2013)
Month to date precipitation 0.00 0.39  
Year to date precipitation 13.92 28.01  
Sea Level Pressure  
Sea Level Pressure 30.05 in    
Wind  
Wind Speed 8 mph (SSW)    
Max Wind Speed 14 mph    
Max Gust Speed 20 mph    
Visibility 10 miles    
Events      
T = Trace of Precipitation, MM = Missing Value Source: NWS Daily Summary

Daily Weather History Graph

Daily Weather History Graph

Search for Another Location

Airport:

Trip Planner

Search our weather history database for the weather conditions in past years. The results will help you decide how hot, cold, wet, or windy it might be!

Date:

Astronomy

Aug. 04, 2014 Rise Set
Actual Time 6:25 AM CDT 8:22 PM CDT
Civil Twilight 5:56 AM CDT 8:50 PM CDT
Nautical Twilight 5:22 AM CDT 9:25 PM CDT
Astronomical Twilight 4:44 AM CDT 10:02 PM CDT
Moon 2:35 PM CDT (8/4) 12:31 AM CDT (8/4)
Length of Visible Light 14h 53m
Length of Day
13h 56m
First Quarter, 57% of the Moon is Illuminated
Aug 4
First Quarter
Aug 10
Full
Aug 17
Last Quarter
Aug 25
New
Sep 2
First Quarter

Hourly Weather History & Observations

Time (CDT) Temp. Heat Index Dew Point Humidity Pressure Visibility Wind Dir Wind Speed Gust Speed Precip Events Conditions
12:53 AM 69.8 °F - 64.4 °F 83% 30.10 in 10.0 mi SSE 3.5 mph - N/A   Clear
1:53 AM 70.0 °F - 64.0 °F 81% 30.06 in 10.0 mi SSE 4.6 mph - N/A   Clear
2:53 AM 70.0 °F - 64.0 °F 81% 30.06 in 10.0 mi SSE 6.9 mph - N/A   Clear
4:53 AM 68.0 °F - 64.4 °F 88% 30.10 in 9.0 mi South 5.8 mph - N/A   Clear
5:53 AM 68.0 °F - 64.9 °F 90% 30.07 in 8.0 mi South 8.1 mph - N/A   Clear
6:53 AM 68.0 °F - 64.9 °F 90% 30.08 in 7.0 mi South 5.8 mph - N/A   Clear
7:53 AM 73.9 °F - 66.0 °F 76% 30.10 in 8.0 mi South 4.6 mph - N/A   Clear
8:53 AM 78.1 °F - 66.0 °F 66% 30.11 in 9.0 mi SW 8.1 mph - N/A   Clear
9:53 AM 81.0 °F 83.0 °F 66.0 °F 60% 30.10 in 10.0 mi SSW 9.2 mph - N/A   Clear
10:53 AM 84.0 °F 86.3 °F 66.0 °F 55% 30.11 in 10.0 mi WSW 10.4 mph - N/A   Clear
11:53 AM 86.0 °F 87.6 °F 64.9 °F 49% 30.09 in 10.0 mi West 10.4 mph - N/A   Partly Cloudy
12:53 PM 87.1 °F 88.9 °F 64.9 °F 48% 30.08 in 10.0 mi WSW 6.9 mph - N/A   Clear
1:53 PM 89.1 °F 90.3 °F 64.0 °F 43% 30.05 in 10.0 mi WSW 9.2 mph - N/A   Partly Cloudy
2:53 PM 91.0 °F 91.9 °F 63.0 °F 39% 30.03 in 10.0 mi SSW 8.1 mph - N/A   Clear
3:53 PM 91.0 °F 91.9 °F 63.0 °F 39% 30.01 in 10.0 mi South 8.1 mph - N/A   Partly Cloudy
4:53 PM 88.0 °F 88.4 °F 62.1 °F 42% 30.01 in 10.0 mi SSW 10.4 mph - N/A   Scattered Clouds
5:53 PM 90.0 °F 90.3 °F 62.1 °F 39% 30.00 in 10.0 mi SW 10.4 mph - N/A   Clear
6:53 PM 87.1 °F 88.9 °F 64.9 °F 48% 29.99 in 10.0 mi SSW 11.5 mph - N/A   Clear
7:53 PM 84.0 °F 85.4 °F 64.0 °F 51% 30.00 in 10.0 mi SSW 9.2 mph - N/A   Clear
8:53 PM 80.1 °F 81.7 °F 64.0 °F 58% 30.00 in 10.0 mi SSW 5.8 mph - N/A   Clear
9:53 PM 75.9 °F - 64.9 °F 69% 30.03 in 10.0 mi SSW 6.9 mph - N/A   Clear
10:53 PM 75.9 °F - 64.9 °F 69% 30.03 in 10.0 mi SSW 6.9 mph - N/A   Clear
11:53 PM 75.0 °F - 64.9 °F 71% 30.04 in 10.0 mi SSW 6.9 mph - N/A   Clear